Location: Kellogg
(38.0159°N, 90.0546°W)
Time: 20:09:26
(UTC+00:00)

Tiros 1 despin weight - Pass Details

Date: 20 September 2024
Orbit: 572 x 614 km, 48.2° (Epoch: 08 October)

Event Time Altitude Azimuth Distance (km) Brightness Sun altitude
Exits shadow 10:55:02 - 307° (NW) 2,404 ? -11.0°
Reaches altitude 10° 10:56:18 10° 315° (NW) 1,984 ? -10.7°
Maximum altitude 11:00:08 26° 12° (NNE) 1,230 ? -10.0°
Drops below altitude 10° 11:03:59 10° 69° (ENE) 1,985 ? -9.2°
Sets 11:06:37 0° 83° (E) 2,887 ? -8.7°
